User: anonymous   Login
Location: Unspecified
(0.0000°N, 0.0000°E)
Time: 22:00:37
(UTC+00:00)
Language:

Orbcomm D8 (FM36) - Orbit

View from above orbital plane
View from above orbital plane
View from above satellite
View from above satellite

Ground track
Ground track

The orbit data is extracted from the following two-line orbital elements,

1 25984U 99065E   17082.52450438 +.00000091 +00000-0 +84979-4 0  9997
2 25984 045.0378 202.7212 0002520 113.4685 246.6427 14.32447561902942
Epoch (UTC): 23 March 2017 12:35:17
Eccentricity: 0.0002520
inclination: 45.0378°
perigee height: 782 km
apogee height: 785 km
right ascension of ascending node: 202.7212°
argument of perigee: 113.4685°
revolutions per day: 14.32447561
mean anomaly at epoch: 246.6427°
orbit number at epoch: 90294

The dashed part of the orbit path shows where the satellite is in the earth's shadow,  

DLR